Orbital Elements at Epoch 2459000.5 (2020-May-31.0) TDB
Reference: JPL 25 (heliocentric ecliptic J2000)
Element | Value | Uncertainty (1-sigma) | Units |
e | .3151149024775861 | 4.2095e-08 | |
a | 2.703227399346301 | 1.1661e-08 | au |
q | 1.851400161026553 | 1.1629e-07 | au |
i | 10.08846669631856 | 4.9861e-06 | deg |
node | 210.6832139603676 | 2.1264e-05 | deg |
peri | 308.2327497026134 | 2.1996e-05 | deg |
M | 244.8235488697903 | 8.3697e-06 | deg |
tp | 2459519.877928485267 (2021-Nov-01.37792849) | 3.9979e-05 | TDB |
period | 1623.387875038061 4.44 | 1.0504e-05 2.876e-08 | d yr |
n | .2217584629868938 | 1.4349e-09 | deg/d |
Q | 3.55505463766605 | 1.5335e-08 | au |
|
| | Orbit Determination Parameters
Additional Information
|